Location: Unspecified
(0.0000°N, 0.0000°E)
Time: 19:56:58
(UTC+00:00)

N. Korean satellite - Pass Details

Date: 07 October 2017
Orbit: 461 x 513 km, 97.2° (Epoch: 14 December)

Event Time Altitude Azimuth Distance (km) Brightness Sun altitude
Rises 18:07:23 0° 157° (SSE) 2,622 10.1 -4.9°
Reaches altitude 10° 18:09:35 10° 150° (SSE) 1,730 9.1 -5.4°
Maximum altitude 18:13:06 40° 79° (E) 761 7.1 -6.3°
Drops below altitude 10° 18:16:33 10° 9° (N) 1,701 9.2 -7.2°
Sets 18:18:41 0° 1° (N) 2,572 10.2 -7.7°
